Location: Lecco
(45.8566°N, 9.3977°E)
Time: 04:58:04
(UTC+02:00)

Transit 4A - Pass Details

Date: 20 August 2020
Orbit: 863 x 982 km, 66.8° (Epoch: 23 September)

Event Time Altitude Azimuth Distance (km) Brightness Sun altitude
Rises 07:12:46 0° 173° (S) 3,482 10.9 6.6°
Reaches altitude 10° 07:15:37 10° 161° (SSE) 2,565 10.4 7.0°
Maximum altitude 07:20:25 26° 107° (ESE) 1,724 10.5 7.9°
Drops below altitude 10° 07:25:20 10° 54° (NE) 2,647 11.6 8.7°
Sets 07:28:18 0° 42° (NE) 3,617 11.9 9.2°
